Volver al catálogo

CZ-6A DEB

ActivoPO
NORAD 61099·DEBRIS·🇨🇳 China

Lanzado Aug 6, 2024 desde Taiyuan Satellite Launch Center

Loading…

Próximos Pases (próximas 24 horas)

TLE

ActualizadoSource: Space-Track

Época: Sep 14, 2026, 06:39 UTC

1 61099U 24140NR  26257.27761726  .00001871  00000-0  73117-3 0  9995
2 61099  89.0049 264.4462 0029960 204.5515 155.4255 14.28981963106480

Sigue CZ-6A DEB en tiempo real con AllMySat

Download on the App Store